Regional Weather Roundup
Issued by NWS

Home | Current Version | Previous Version | Text Only | Print | Product List | Glossary On
Versions: 1 2 3 4 5 6 7 8 9 10 11 12 13 14 15 16 17 18 19 20 21 22 23 24 25 26 27 28
000
ASUS45 KBOI 280210
RWRID

IDAHO REGIONAL WEATHER ROUNDUP
NATIONAL WEATHER SERVICE BOISE ID
800 PM MDT TUE JUN 27 2017

NOTE: "FAIR" INDICATES FEW OR NO CLOUDS BELOW 12000 FEET
WITH NO SIGNIFICANT WEATHER AND/OR OBSTRUCTIONS TO VISIBILITY

IDZ012-014-280300-
SOUTHWEST IDAHO


CITY           SKY/WX    TMP DP  RH WIND       PRES   REMARKS
BOISE          SUNNY     87  41  19 N5        29.77F
CALDWELL       SUNNY     86  51  29 E6        29.74F
MOUNTAIN HOME  MOSUNNY   88  43  20 N14       29.78S
$$

IDZ016-017-280300-
SOUTHCENTRAL IDAHO


CITY           SKY/WX    TMP DP  RH WIND       PRES   REMARKS
BURLEY         SUNNY     78  45  30 W7        29.86F
JEROME         SUNNY     80  47  31 W8        29.87F
TWIN FALLS     MOSUNNY   80  46  30 NW8       29.87F
$$

IDZ019>023-280300-
SOUTHEAST IDAHO


CITY           SKY/WX    TMP DP  RH WIND       PRES   REMARKS
IDAHO FALLS    PTSUNNY   76  44  32 S17G26    29.86S
POCATELLO      MOSUNNY   78  41  26 SW18      29.89F
REXBURG        CLOUDY    66  50  56 E15       29.92R
$$

IDZ006-010-011-018-031-032-280300-
CENTRAL IDAHO MOUNTAINS


CITY           SKY/WX    TMP DP  RH WIND       PRES   REMARKS
MCCALL         PTSUNNY   71  43  36 N13       29.91S
HAILEY         SUNNY     75  36  23 W8        29.94R
STANLEY          N/A     70  32  24 VRB5      30.02S
SALMON         PTSUNNY   64  52  63 W5        29.95R
CHALLIS        MOSUNNY   69  43  38 N20G26    29.95R
$$

IDZ002-004-006-007-026-280300-
NORTHERN IDAHO


CITY           SKY/WX    TMP DP  RH WIND       PRES   REMARKS
LEWISTON       MOSUNNY   83  41  22 NW10      29.79S
LOWELL           N/A     75  53  46 CALM      29.77F
COEUR D`ALENE  SUNNY     78  43  28 W7        29.81F
MULLAN PASS    MOSUNNY   60  38  43 VRB5      29.98S
$$




USA.gov is the U.S. government's official web portal to all federal, state and local government web resources and services.